[[{"header":{"parameterUnit":"m.s-1","parameterCategory":1,"la1":30.2991,"la2":30.254,"lo1":-89.0895,"lo2":-89.0444,"dy":0.0017,"dx":0.0017,"nx":28,"ny":28,"refTime":"2025-06-18T03:00:00:Z","depth":0,"parameterNumber":2,"parameterNumberName":"U-component_of_WINDS"},"data":[0,0,0,0,0,0,0,0,0,0,0,0,0,0,0,0,0,0,0,0,0,0,0,0,0,0,0,0,0,0,0,0,0,0,0,0,0,0,0,0,0,0,0,0,0,0,0,0,0,0,0,0,0,0,0,0,0,0,-0.5249,-0.5247,0,-0.5074,-0.5072,-0.507,-0.4982,-0.4982,-0.4982,-0.4982,-0.48,-0.4795,-0.4791,0,0,0,0,0,0,0,0,0,0,0,0,0,-0.5502,-0.5498,-0.5249,-0.5247,-0.5244,-0.5075,-0.5072,-0.507,-0.4982,-0.4982,-0.4982,-0.4982,-0.4802,-0.4796,-0.479,0,0,0,0,0,0,0,0,0,0,0,0,0,-0.5366,-0.5496,-0.5249,-0.518,-0.5173,-0.5075,-0.5072,-0.5069,-0.4982,-0.4982,-0.4982,-0.4982,-0.4804,-0.4797,-0.4789,-0.4746,0,0,-0.4767,-0.4764,0,0,0,0,0,0,0,0,-0.5374,-0.5357,-0.5193,-0.5185,-0.5176,-0.505,-0.5095,-0.4961,-0.4982,-0.5054,-0.4982,-0.4982,-0.4883,-0.4869,-0.4837,-0.4738,-0.473,-0.4767,-0.4762,-0.4759,-0.4757,0,0,0,0,0,0,0,-0.5384,-0.5364,-0.518,-0.519,-0.518,-0.5157,-0.5138,-0.5069,-0.4971,-0.5048,-0.5041,-0.5022,-0.4878,-0.4844,-0.4832,-0.4727,-0.4767,-0.4761,-0.4756,-0.4753,-0.4582,-0.4582,0,0,0,0,0,0,-0.5405,-0.5373,-0.5185,-0.5174,-0.5277,-0.5153,-0.5131,-0.5091,-0.4972,-0.4954,-0.5022,-0.5019,-0.4856,-0.484,-0.4825,-0.4766,-0.4759,-0.4753,-0.4748,-0.4582,-0.4582,-0.4582,0,0,0,0,0,0,-0.541,-0.5389,-0.5192,-0.5271,-0.5245,-0.5148,-0.5104,-0.5087,-0.5052,-0.4952,-0.4934,-0.5005,-0.4855,-0.4835,-0.4766,-0.4758,-0.4749,-0.4743,-0.4583,-0.4582,-0.4582,-0.4647,0,0,0,0,0,0,-0.5418,-0.5391,-0.5375,-0.5272,-0.5241,-0.5138,-0.5103,-0.5084,-0.5041,-0.5034,-0.4931,-0.4914,-0.4854,-0.4778,-0.4759,-0.4748,-0.4737,-0.4583,-0.4583,-0.4582,-0.4646,-0.4649,-0.4653,0,0,0,0,0,-0.5427,-0.54,-0.5375,-0.5352,-0.5219,-0.5138,-0.512,-0.5052,-0.504,-0.5022,-0.4958,-0.4917,-0.4762,-0.4771,-0.475,-0.4736,-0.4583,-0.4583,-0.4582,-0.4644,-0.4649,-0.4653,0,0,0,0,0,0,-0.5503,-0.5385,-0.5356,-0.5294,-0.5227,-0.5123,-0.5098,-0.5059,-0.4993,-0.499,-0.4907,-0.4885,-0.4823,-0.4773,-0.4785,-0.4688,-0.4669,-0.4664,-0.4723,-0.4726,-0.473,-0.4743,-0.4731,0,0,0,0,0,-0.5513,-0.5459,-0.5358,-0.5313,-0.5281,-0.5196,-0.5158,-0.5112,-0.5038,-0.5009,-0.4939,-0.4868,-0.4803,-0.4762,-0.4697,-0.4638,-0.4613,-0.4618,-0.4622,-0.4625,-0.4622,-0.4586,-0.4586,-0.458,-0.458,-0.458,0,0,-0.5532,-0.5461,-0.5431,-0.5326,-0.5269,-0.5213,-0.5172,-0.5115,-0.5072,-0.4999,-0.493,-0.4877,-0.4792,-0.4728,-0.4696,-0.4684,-0.4618,-0.4624,-0.4628,-0.4622,-0.4585,-0.4586,-0.4586,-0.458,-0.458,-0.458,0,0,-0.5539,-0.548,-0.5436,-0.5379,-0.5293,-0.5236,-0.5226,-0.5127,-0.5089,-0.5019,-0.4963,-0.491,-0.4801,-0.4742,-0.4698,-0.4682,-0.4642,-0.4663,-0.4682,-0.4648,-0.4648,-0.4648,-0.4641,-0.464,-0.466,-0.466,-0.4661,0,-0.5573,-0.5488,-0.5418,-0.5364,-0.5318,-0.5251,-0.5205,-0.5153,-0.5049,-0.5019,-0.5007,-0.4868,-0.4806,-0.4727,-0.4723,-0.469,-0.4674,-0.4674,-0.4654,-0.4653,-0.4652,-0.4645,-0.4643,-0.4664,-0.4663,-0.4663,-0.4663,0,-0.5534,-0.5476,-0.5451,-0.5353,-0.5305,-0.5256,-0.5176,-0.5136,-0.5094,-0.5038,-0.4967,-0.489,-0.4808,-0.4786,-0.4744,-0.47,-0.4695,-0.467,-0.4649,-0.4657,-0.4649,-0.4645,-0.4668,-0.4667,-0.4666,-0.4665,0,0,-0.5584,-0.5448,-0.544,-0.5395,-0.5294,-0.5247,-0.5194,-0.5114,-0.5081,-0.5011,-0.4964,-0.4872,-0.4848,-0.4798,-0.4748,-0.4719,-0.471,-0.4696,-0.4693,-0.4701,-0.4656,-0.4676,-0.4674,-0.4683,-0.4682,-0.4681,-0.4663,0,-0.5576,-0.5478,-0.5413,-0.5341,-0.5285,-0.522,-0.5173,-0.5106,-0.5052,-0.4996,-0.4936,-0.4873,-0.4846,-0.4815,-0.4783,-0.4718,-0.47,-0.4718,-0.4636,-0.4634,-0.4659,-0.467,-0.469,-0.4677,-0.4659,-0.4659,-0.4658,0,-0.5553,-0.5487,-0.5409,-0.5314,-0.5288,-0.5248,-0.5169,-0.5117,-0.5039,-0.5002,-0.4946,-0.4896,-0.4835,-0.482,-0.4735,-0.4749,-0.4711,-0.4674,-0.4672,-0.4661,-0.4647,-0.4659,-0.4671,-0.4669,-0.4653,-0.4653,-0.4654,0,-0.5597,-0.5487,-0.5427,-0.539,-0.5278,-0.5251,-0.5202,-0.5124,-0.508,-0.5011,-0.4981,-0.4906,-0.4865,-0.4807,-0.4737,-0.4733,-0.4658,-0.4637,-0.4625,-0.4626,-0.4611,-0.4613,-0.4617,-0.4589,-0.4589,-0.4589,-0.4589,0,-0.5594,-0.5549,-0.5445,-0.5407,-0.5354,-0.5279,-0.5229,-0.5175,-0.5105,-0.5055,-0.4994,-0.4948,-0.4859,-0.4802,-0.4746,-0.4683,-0.4665,-0.4633,-0.4618,-0.4638,-0.4642,-0.4612,-0.461,-0.4588,-0.4588,-0.4588,-0.4588,0,-0.5633,-0.5562,-0.5491,-0.5391,-0.5365,-0.533,-0.5243,-0.5204,-0.5147,-0.5084,-0.5065,-0.4975,-0.4905,-0.4829,-0.4733,-0.4696,-0.4635,-0.4615,-0.4662,-0.4654,-0.4645,-0.4647,-0.4629,-0.4623,-0.46,-0.46,-0.46,0,-0.5637,-0.5601,-0.5496,-0.5459,-0.5413,-0.5353,-0.5308,-0.5233,-0.5188,-0.5096,-0.5067,-0.4992,-0.4928,-0.4818,-0.4743,-0.4669,-0.4646,-0.4645,-0.4634,-0.4655,-0.4645,-0.4648,-0.4644,-0.4649,-0.4649,-0.465,-0.465,0,-0.565,-0.5616,-0.5554,-0.548,-0.5429,-0.5366,-0.5301,-0.5274,-0.5185,-0.5138,-0.5065,-0.5016,-0.4917,-0.4843,-0.476,-0.4708,-0.4664,-0.4654,-0.4647,-0.4666,-0.4695,-0.4679,-0.4671,-0.4655,-0.4654,-0.4654,-0.4654,-0.4654,-0.567,-0.5635,-0.5556,-0.5489,-0.5432,-0.5373,-0.5331,-0.5269,-0.5208,-0.5123,-0.5081,-0.5009,-0.4929,-0.4813,-0.4762,-0.4704,-0.469,-0.468,-0.4678,-0.4676,-0.4681,-0.4705,-0.4688,-0.4688,-0.4688,-0.4687,-0.4687,0,-0.5679,-0.5626,-0.5565,-0.5476,-0.5423,-0.5388,-0.5314,-0.5271,-0.5209,-0.5139,-0.5078,-0.4994,-0.4921,-0.4841,-0.4763,-0.4731,-0.4709,-0.4714,-0.4715,-0.4703,-0.4697,-0.4711,-0.4733,-0.4733,-0.4733,-0.4733,-0.4733,-0.4733,-0.5678,-0.5616,-0.5573,-0.5482,-0.5427,-0.5357,-0.5318,-0.5262,-0.5206,-0.5116,-0.5056,-0.5004,-0.493,-0.4846,-0.4777,-0.4755,-0.4729,-0.4739,-0.4712,-0.4708,-0.4704,-0.47,-0.4713,-0.4734,-0.4734,-0.4722,-0.4722,-0.4722]},{"header":{"parameterUnit":"m.s-1","parameterCategory":1,"la1":30.2991,"la2":30.254,"lo1":-89.0895,"lo2":-89.0444,"dy":0.0017,"dx":0.0017,"nx":28,"ny":28,"refTime":"2025-06-18T03:00:00:Z","depth":0,"parameterNumber":3,"parameterNumberName":"V-component_of_WINDS"},"data":[0,0,0,0,0,0,0,0,0,0,0,0,0,0,0,0,0,0,0,0,0,0,0,0,0,0,0,0,0,0,0,0,0,0,0,0,0,0,0,0,0,0,0,0,0,0,0,0,0,0,0,0,0,0,0,0,0,0,4.0903,4.0903,0,4.0859,4.0858,4.0857,4.085,4.085,4.0851,4.0851,4.0797,4.0796,4.0794,0,0,0,0,0,0,0,0,0,0,0,0,0,4.0977,4.0975,4.0903,4.0903,4.0902,4.0859,4.0858,4.0857,4.085,4.085,4.0851,4.0851,4.0798,4.0796,4.0794,0,0,0,0,0,0,0,0,0,0,0,0,0,4.0939,4.0975,4.0904,4.0894,4.0892,4.0859,4.0858,4.0857,4.085,4.085,4.0851,4.0851,4.0799,4.0796,4.0793,4.0765,0,0,4.0785,4.0784,0,0,0,0,0,0,0,0,4.0942,4.0937,4.0896,4.0894,4.0893,4.0861,4.0864,4.0826,4.0849,4.0866,4.0851,4.0852,4.0817,4.0813,4.0803,4.0762,4.076,4.0785,4.0783,4.0782,4.0781,0,0,0,0,0,0,0,4.0944,4.0939,4.0885,4.0895,4.0893,4.0889,4.0885,4.0857,4.0838,4.0864,4.0864,4.0859,4.0817,4.0806,4.0802,4.0759,4.0785,4.0783,4.0781,4.078,4.0693,4.0692,0,0,0,0,0,0,4.095,4.0941,4.0887,4.0884,4.0919,4.0887,4.0882,4.087,4.0839,4.0835,4.0858,4.0859,4.081,4.0805,4.08,4.0765,4.0782,4.078,4.0778,4.0693,4.0692,4.0692,0,0,0,0,0,0,4.0951,4.0945,4.0889,4.0912,4.0905,4.0886,4.0872,4.0869,4.0858,4.0834,4.083,4.0851,4.081,4.0804,4.0774,4.0763,4.0778,4.0776,4.0694,4.0693,4.0692,4.0694,0,0,0,0,0,0,4.0953,4.0945,4.0936,4.0912,4.0904,4.0865,4.0871,4.0868,4.0854,4.0854,4.0827,4.0822,4.081,4.0778,4.0772,4.0759,4.0774,4.0695,4.0694,4.0692,4.0695,4.0693,4.0692,0,0,0,0,0,4.0956,4.0936,4.0935,4.0929,4.0892,4.0865,4.086,4.0849,4.0854,4.0843,4.0828,4.0823,4.0765,4.0775,4.0768,4.0754,4.0696,4.0694,4.0692,4.0695,4.0693,4.0692,0,0,0,0,0,0,4.0956,4.0933,4.0931,4.0904,4.0887,4.0864,4.085,4.0847,4.0826,4.0826,4.0811,4.0805,4.0776,4.0762,4.0774,4.0725,4.0731,4.0727,4.0735,4.0733,4.0732,4.0735,4.0772,0,0,0,0,0,4.0953,4.0935,4.0915,4.0893,4.0885,4.0869,4.0857,4.085,4.083,4.0822,4.0805,4.0784,4.0762,4.0747,4.0724,4.0693,4.0686,4.068,4.0678,4.0677,4.0674,4.0657,4.0654,4.0686,4.0686,4.0687,0,0,4.0946,4.0931,4.0921,4.0893,4.0878,4.0859,4.0863,4.0841,4.0826,4.0818,4.079,4.0777,4.0753,4.0722,4.0708,4.071,4.0664,4.0675,4.0675,4.0672,4.0655,4.0652,4.065,4.0685,4.0686,4.0686,0,0,4.0924,4.0911,4.0892,4.0878,4.0858,4.0848,4.0843,4.0821,4.0813,4.0785,4.0779,4.0759,4.072,4.0704,4.069,4.0664,4.0659,4.0656,4.0648,4.0631,4.0629,4.0626,4.0617,4.0614,4.0654,4.0654,4.0654,0,4.0917,4.089,4.0881,4.0861,4.0849,4.0844,4.0823,4.081,4.0782,4.0772,4.0776,4.0728,4.0711,4.0677,4.0671,4.066,4.0654,4.0659,4.063,4.0628,4.0625,4.0616,4.0613,4.0654,4.0654,4.0654,4.0654,0,4.0882,4.0863,4.085,4.0827,4.0813,4.0792,4.0779,4.0766,4.076,4.0749,4.0721,4.0701,4.0675,4.0667,4.066,4.0632,4.0634,4.0634,4.0639,4.0623,4.0614,4.061,4.0654,4.0654,4.0654,4.0654,0,0,4.0857,4.0832,4.0827,4.0817,4.0795,4.0779,4.0758,4.0735,4.0724,4.0705,4.0686,4.0655,4.0655,4.064,4.0631,4.0617,4.0598,4.0619,4.0618,4.0616,4.0566,4.0566,4.0562,4.0595,4.0594,4.0593,4.0568,0,4.0832,4.0798,4.079,4.076,4.0742,4.0738,4.0719,4.0703,4.0692,4.0674,4.0661,4.0639,4.0642,4.0632,4.0618,4.0603,4.0587,4.0605,4.0576,4.0575,4.0582,4.0557,4.0557,4.0534,4.0564,4.0563,4.0563,0,4.0798,4.0782,4.0751,4.0733,4.0725,4.0709,4.0688,4.0672,4.0652,4.0646,4.063,4.0623,4.06,4.0607,4.0574,4.0586,4.0574,4.0564,4.0563,4.056,4.0568,4.0553,4.0526,4.0523,4.0557,4.0558,4.0558,0,4.0784,4.0754,4.0732,4.0723,4.0701,4.069,4.068,4.0662,4.0649,4.063,4.0621,4.0599,4.0587,4.0569,4.0556,4.0562,4.0524,4.0529,4.0516,4.0517,4.0508,4.0508,4.0479,4.05,4.05,4.05,4.05,0,4.0757,4.0738,4.0725,4.0711,4.0689,4.068,4.0658,4.0648,4.0632,4.0615,4.0609,4.0592,4.0576,4.0557,4.0546,4.0521,4.0515,4.0508,4.0505,4.0508,4.0509,4.05,4.0501,4.0499,4.05,4.05,4.05,0,4.0736,4.0727,4.0703,4.0685,4.068,4.0665,4.0649,4.0634,4.0624,4.0603,4.0597,4.058,4.0558,4.0544,4.0514,4.0507,4.0479,4.0476,4.0486,4.0485,4.0473,4.0474,4.0435,4.043,4.0455,4.0455,4.0455,0,4.072,4.0705,4.0687,4.0677,4.0667,4.065,4.0638,4.0628,4.0615,4.0594,4.0582,4.056,4.0541,4.0505,4.0489,4.0467,4.0464,4.0452,4.046,4.0464,4.0464,4.0465,4.0463,4.045,4.045,4.045,4.045,0,4.0691,4.0688,4.0672,4.0655,4.0642,4.0627,4.0612,4.0603,4.0591,4.0577,4.0555,4.0541,4.0513,4.049,4.0467,4.0454,4.0449,4.0447,4.0443,4.0446,4.0453,4.0449,4.0482,4.0448,4.0448,4.0448,4.0448,4.0448,4.0672,4.066,4.0646,4.0628,4.0617,4.0604,4.059,4.058,4.0562,4.054,4.0535,4.0512,4.0494,4.0462,4.0449,4.043,4.0432,4.0425,4.0424,4.0423,4.0423,4.0456,4.0426,4.0426,4.0426,4.0426,4.0426,0,4.0643,4.0635,4.0619,4.06,4.0587,4.0587,4.057,4.0558,4.054,4.0524,4.0507,4.0483,4.0461,4.0445,4.0423,4.041,4.0408,4.0405,4.0405,4.0403,4.0422,4.0429,4.0408,4.0408,4.0408,4.0408,4.0408,4.0408,4.0627,4.0606,4.0602,4.0575,4.0566,4.0546,4.0537,4.0524,4.0512,4.0486,4.0469,4.046,4.0443,4.042,4.04,4.0396,4.0388,4.0386,4.038,4.0399,4.0401,4.0403,4.0409,4.0384,4.0384,4.0362,4.0362,4.0362]}]]